Ankara, Turkey

8:41 PM +03 on April 29, 2017 (GMT +0300)
Esenboga

Weather History for LTAC - March, 2013

Change the Weather History Date:

Friday, March 8, 2013

  Actual Average Record
Temperature  
Mean Temperature 43 °F -  
Max Temperature 55 °F 51 °F 68 °F (2002)
Min Temperature 31 °F 29 °F 14 °F (2004)
Degree Days  
Heating Degree Days 22    
Moisture  
Dew Point 24 °F    
Average Humidity 49    
Maximum Humidity 75    
Minimum Humidity 16    
Precipitation  
Precipitation 0.00 in - - ()
Sea Level Pressure  
Sea Level Pressure 29.96 in    
Wind  
Wind Speed 3 mph ()    
Max Wind Speed 13 mph    
Max Gust Speed -    
Visibility 6.6 miles    
Events      
Averages and records for this station are not official NWS values.
T = Trace of Precipitation, MM = Missing Value Source: Averaged Metar Reports

Daily Weather History Graph

Daily Weather History Graph

Search for Another Location

Airport or City:

Trip Planner

Search our weather history database for the weather conditions in past years. The results will help you decide how hot, cold, wet, or windy it might be!

Date:

Astronomy

Mar. 08, 2013 Rise Set
Actual Time 6:10 AM EET 5:47 PM EET
Civil Twilight 5:43 AM EET 6:14 PM EET
Nautical Twilight 5:12 AM EET 6:45 PM EET
Astronomical Twilight 4:40 AM EET 7:17 PM EET
Moon 3:40 AM EET (3/8) 2:19 PM EET (3/8)
Length of Visible Light 12h 30m
Length of Day
11h 36m
Waning Crescent, 14% of the Moon is Illuminated
Mar 8
Waning Crescent
Mar 11
New
Mar 19
First Quarter
Mar 27
Full
Apr 3
Last Quarter

Hourly Weather History & Observations

Time (EET) Temp. Windchill Dew Point Humidity Pressure Visibility Wind Dir Wind Speed Gust Speed Precip Events Conditions
12:20 AM 32.0 °F - 21.2 °F 64% 30.06 in 6.2 mi Variable 2.3 mph - N/A   Mostly Cloudy
12:50 AM 33.8 °F - 21.2 °F 60% 30.04 in 6.2 mi Variable 1.2 mph - N/A   Mostly Cloudy
1:20 AM 33.8 °F - 23.0 °F 65% 30.04 in 6.2 mi Variable 1.2 mph - N/A   Mostly Cloudy
1:50 AM 32.0 °F - 23.0 °F 69% 30.04 in 6.2 mi Variable 1.2 mph - N/A   Mostly Cloudy
2:00 AM 33 °F - 23 °F 55% 30.09 in 12 mi SW 1.2 mph - -   Partly Cloudy
2:20 AM 33.8 °F - 23.0 °F 65% 30.04 in 6.2 mi Variable 1.2 mph - N/A   Mostly Cloudy
2:50 AM 33.8 °F - 23.0 °F 65% 30.01 in 6.2 mi Variable 1.2 mph - N/A   Mostly Cloudy
3:20 AM 33.8 °F - 24.8 °F 70% 30.01 in 6.2 mi Variable 1.2 mph - N/A   Mostly Cloudy
3:50 AM 33.8 °F - 23.0 °F 65% 30.01 in 6.2 mi Variable 1.2 mph - N/A   Mostly Cloudy
4:20 AM 33.8 °F - 24.8 °F 70% 30.01 in 6.2 mi Variable 1.2 mph - N/A   Mostly Cloudy
4:50 AM 33.8 °F - 23.0 °F 65% 30.01 in 6.2 mi Variable 1.2 mph - N/A   Mostly Cloudy
5:20 AM 33.8 °F 30.8 °F 23.0 °F 65% 30.01 in 6.2 mi SSE 3.5 mph - N/A   Mostly Cloudy
5:50 AM 33.8 °F - 23.0 °F 65% 30.01 in 6.2 mi Variable 1.2 mph - N/A   Mostly Cloudy
6:20 AM 32.0 °F 28.7 °F 24.8 °F 75% 30.01 in 6.2 mi North 3.5 mph - N/A   Mostly Cloudy
6:50 AM 33.8 °F - 24.8 °F 70% 30.01 in 6.2 mi Variable 1.2 mph - N/A   Mostly Cloudy
7:20 AM 33.8 °F - 24.8 °F 70% 30.01 in 6.2 mi Variable 1.2 mph - N/A   Mostly Cloudy
7:50 AM 35.6 °F - 24.8 °F 65% 30.01 in 6.2 mi Variable 2.3 mph - N/A   Mostly Cloudy
8:00 AM 36 °F - 23 °F 48% 30.09 in 12 mi ESE 2.3 mph - -   Partly Cloudy
8:20 AM 37.4 °F - 24.8 °F 60% 30.04 in 6.2 mi Variable 1.2 mph - N/A   Mostly Cloudy
8:50 AM 37.4 °F 34.9 °F 26.6 °F 65% 30.04 in 6.2 mi WNW 3.5 mph - N/A   Mostly Cloudy
9:20 AM 39.2 °F - 24.8 °F 56% 30.04 in 6.2 mi Variable 2.3 mph - N/A   Mostly Cloudy
9:50 AM 41.0 °F 37.1 °F 23.0 °F 49% 30.01 in 6.2 mi North 5.8 mph - N/A   Mostly Cloudy
10:20 AM 42.8 °F 40.1 °F 24.8 °F 49% 29.98 in 6.2 mi ENE 4.6 mph - N/A   Mostly Cloudy
10:50 AM 44.6 °F 42.2 °F 23.0 °F 43% 29.98 in 6.2 mi ESE 4.6 mph - N/A   Mostly Cloudy
11:20 AM 48.2 °F - 21.2 °F 34% 29.98 in 6.2 mi South 5.8 mph - N/A   Mostly Cloudy
11:50 AM 48.2 °F - 21.2 °F 34% 29.98 in 6.2 mi South 3.5 mph - N/A   Mostly Cloudy
12:20 PM 48.2 °F - 23.0 °F 37% 29.95 in 6.2 mi SSW 8.1 mph - N/A   Mostly Cloudy
12:50 PM 50.0 °F - 21.2 °F 32% 29.95 in 6.2 mi South 5.8 mph - N/A   Mostly Cloudy
1:20 PM 51.8 °F - 23.0 °F 33% 29.92 in 6.2 mi NNE 4.6 mph - N/A   Mostly Cloudy
1:50 PM 51.8 °F - 23.0 °F 33% 29.92 in 6.2 mi Variable 2.3 mph - N/A   Mostly Cloudy
2:00 PM 53 °F - 21 °F 16% 29.95 in 12 mi 2.3 mph - -   Partly Cloudy
2:20 PM 53.6 °F - 24.8 °F 33% 29.89 in 6.2 mi West 4.6 mph - N/A   Mostly Cloudy
2:50 PM 53.6 °F - 21.2 °F 28% 29.89 in 6.2 mi WSW 4.6 mph - N/A   Mostly Cloudy
3:20 PM 53.6 °F - 21.2 °F 28% 29.89 in 6.2 mi West 4.6 mph - N/A   Mostly Cloudy
3:50 PM 53.6 °F - 21.2 °F 28% 29.86 in 6.2 mi West 6.9 mph - N/A   Mostly Cloudy
4:20 PM 53.6 °F - 21.2 °F 28% 29.86 in 6.2 mi ENE 4.6 mph - N/A   Mostly Cloudy
4:50 PM 51.8 °F - 24.8 °F 35% 29.86 in 6.2 mi East 5.8 mph - N/A   Mostly Cloudy
5:20 PM 51.8 °F - 23.0 °F 33% 29.86 in 6.2 mi SE 8.1 mph - N/A   Mostly Cloudy
5:50 PM 50.0 °F - 23.0 °F 35% 29.89 in 6.2 mi SSE 8.1 mph - N/A   Mostly Cloudy
6:20 PM 50.0 °F - 23.0 °F 35% 29.89 in 6.2 mi SSE 8.1 mph - N/A   Mostly Cloudy
6:50 PM 48.2 °F - 21.2 °F 34% 29.89 in 6.2 mi SE 6.9 mph - N/A   Mostly Cloudy
7:20 PM 48.2 °F - 23.0 °F 37% 29.89 in 6.2 mi South 11.5 mph - N/A   Mostly Cloudy
7:50 PM 46.4 °F 41.1 °F 24.8 °F 43% 29.89 in 6.2 mi South 11.5 mph - N/A   Mostly Cloudy
8:00 PM 47 °F - 24 °F 28% 29.95 in 12 mi South 11.5 mph - -   Partly Cloudy
8:20 PM 46.4 °F 41.5 °F 26.6 °F 46% 29.89 in 6.2 mi SSW 10.4 mph - N/A   Mostly Cloudy
8:50 PM 44.6 °F 38.4 °F 26.6 °F 49% 29.92 in 6.2 mi SSW 12.7 mph - N/A   Mostly Cloudy
9:20 PM 46.4 °F 41.5 °F 26.6 °F 46% 29.92 in 6.2 mi South 10.4 mph - N/A   Mostly Cloudy
9:50 PM 44.6 °F 39.2 °F 26.6 °F 49% 29.92 in 6.2 mi South 10.4 mph - N/A   Mostly Cloudy
10:20 PM 44.6 °F 39.2 °F 28.4 °F 53% 29.92 in 6.2 mi South 10.4 mph - N/A   Mostly Cloudy
10:50 PM 44.6 °F 41.4 °F 28.4 °F 53% 29.92 in 6.2 mi South 5.8 mph - N/A   Mostly Cloudy
11:20 PM 42.8 °F 39.3 °F 28.4 °F 57% 29.92 in 6.2 mi SSE 5.8 mph - N/A   Mostly Cloudy
11:50 PM 42.8 °F 39.3 °F 28.4 °F 57% 29.92 in 6.2 mi SSE 5.8 mph - N/A   Mostly Cloudy